Regional Weather Roundup
Issued by NWS

Home | Current Version | Previous Version | Text Only | Print | Product List | Glossary Off
Versions: 1 2 3 4 5 6 7 8 9 10 11 12 13 14 15 16 17 18 19 20 21 22 23 24 25 26 27 28 29 30 31 32 33 34 35 36 37 38 39 40 41 42 43 44 45 46 47 48 49 50

000
ASUS43 KDMX 160707
RWRIA

WEATHER ROUNDUP FOR IOWA
NATIONAL WEATHER SERVICE DES MOINES IA
200 AM CDT TUE SEP 16 2014

NOTE: "FAIR" INDICATES FEW OR NO CLOUDS BELOW 12,000 FEET WITH NO
SIGNIFICANT WEATHER AND/OR OBSTRUCTIONS TO VISIBILITY.

* - THESE STATIONS ARE NOT NWS STATIONS...THUS NOT UNDER NWS
QUALITY CONTROL.  THEY ALSO DO NOT REPORT WEATHER SUCH
AS PRECIPITATION OR FOG.

IAZ001>003-012>014-020>022-031>034-043>046-160800-
   NORTHWEST IOWA

CITY           SKY/WX    TMP DP  RH WIND       PRES   REMARKS
CARROLL *      CLEAR     37  37 100 CALM      30.27R
CHEROKEE *     CLEAR     37  37 100 CALM      30.26S
DENISON *      CLEAR     41  41 100 E3        30.26R
LE MARS *        N/A     39  39 100 CALM      30.27R
ORANGE CITY *  CLEAR     46  41  81 CALM      30.25S
SHELDON *      CLEAR     37  37 100 CALM      30.24S
SIOUX CITY     CLEAR     41  39  93 CALM      30.27R
SPENCER        CLEAR     38  37  97 CALM      30.26R FOG
STORM LAKE *   CLEAR     43  43 100 SW5       30.26S
$$

IAZ055>058-069>071-079>083-090>094-160800-
   SOUTHWEST IOWA

CITY           SKY/WX    TMP DP  RH WIND       PRES   REMARKS
ATLANTIC *     PTCLDY    41  41 100 CALM      30.27S
AUDUBON *      CLEAR     41  39  93 CALM      30.28S
CLARINDA *     CLEAR     41  41 100 CALM      30.29R FOG
COUNCIL BLFS * CLEAR     46  46 100 CALM      30.26S
CRESTON *      CLEAR     45  43  93 N3        30.27R
HARLAN  *      CLEAR     41  41 100 CALM      30.31R FOG
LAMONI         CLEAR     47  45  93 CALM      30.25S
SHENANDOAH *   PTCLDY    41  41 100 CALM      30.29R
$$

IAZ047>049-059>061-072>074-084-160800-
   CENTRAL IOWA

CITY           SKY/WX    TMP DP  RH WIND       PRES   REMARKS
AMES           CLEAR     41  40  96 W3        30.26R
ANKENY *       CLEAR     43  43 100 CALM      30.26R
CHARITON *     CLEAR     45  45 100 N6        30.25S
DES MOINES     CLEAR     49  44  83 CALM      30.25S
GRINNELL*      CLEAR     45  43  93 CALM      30.25S
KNOXVILLE *    CLEAR     46  45  93 NW3       30.24S
MARSHALLTOWN   CLEAR     41  40  96 CALM      30.24S
PELLA *        CLEAR     45  45 100 CALM      30.26S
PERRY *          N/A     43  43 100 W5        30.26S
$$

IAZ004>006-015-016-023>025-035-036-160800-
   NORTH CENTRAL IOWA

CITY           SKY/WX    TMP DP  RH WIND       PRES   REMARKS
ALGONA *       CLEAR     41  39  93 SW3       30.26R
CLARION *        N/A     39  39 100 CALM      30.25R
ESTHERVILLE    CLEAR     40  38  93 W6        30.25R
FORT DODGE *   MOCLDY    39  37  93 CALM      30.26R
MASON CITY     CLEAR     38  37  97 CALM      30.26S
FOREST CITY *  CLEAR     36  36 100 CALM      30.25R
IOWA FALLS *     N/A     39  37  93 CALM      30.26S
$$

IAZ007>011-017>019-026>030-037>042-050>054-066-160800-
   NORTHEAST IOWA

CITY           SKY/WX    TMP DP  RH WIND       PRES   REMARKS
CHARLES CITY * CLEAR     41  39  93 CALM      30.25S
CLINTON *      CLEAR     41  39  93 NW6       30.25R
DECORAH *      PTCLDY    41  41 100 CALM      30.23S
DUBUQUE        CLEAR     40  38  93 CALM      30.23S
MONTICELLO *   CLEAR     39  39 100 CALM      30.24S
OELWEIN *      CLEAR     43  43 100 CALM      30.25S
$$

IAZ064-065-067-068-078-160800-
   EAST CENTRAL IOWA

CITY           SKY/WX    TMP DP  RH WIND       PRES   REMARKS
DAVENPORT      CLEAR     42  40  92 CALM      30.23S
MT. PLEASANT * CLEAR     46  46 100 NW3       30.24S
MUSCATINE *    CLEAR     46  45  93 CALM      30.24S
QUAD CITIES    CLEAR     46  43  89 CALM      30.23S
$$

IAZ062-063-075>077-085>089-095>099-160800-
   SOUTHEAST IOWA

CITY           SKY/WX    TMP DP  RH WIND       PRES   REMARKS
BURLINGTON     CLEAR     49  47  93 N6        30.23R
FAIRFIELD *    CLEAR     45  43  93 NW5       30.25R
FORT MADISON * CLEAR     48  48 100 NW3       30.24S
KEOKUK *       CLEAR     46  46 100 CALM      30.23R
OSKALOOSA *      N/A     45  45 100 CALM      30.25S
CENTERVILLE *  CLEAR     45  45 100 N3        30.26S
OTTUMWA        CLEAR     43  42  97 N6        30.25R
WASHINGTON *   CLEAR     43  43 100 CALM      30.24S
$$

ABBREVIATIONS USED IN REMARKS
   TC - TEMPERATURES IN CELSIUS
  WCI - WIND CHILL INDEX
   HX - HEAT INDEX
  VSB - VISIBILITY
$$



USA.gov is the U.S. government's official web portal to all federal, state and local government web resources and services.